Total_Precipitation_Accumulation
0.76 0.68 0.84 0.90 0.82 0.89 1.23 1.14 1.05 0.68 0.58 0.61 0.63 0.65 0.61 0.61 0.60 0.59 0.66 0.73 0.79 0.86 0.85 0.84 0.90 0.93 1.01 1.11 1.18 1.25 1.32 1.33 1.31 1.34 1.36 1.37 1.37 1.39 1.37 1.41 1.43 1.47 1.51 1.48
0.72 0.61 0.72 0.77 0.68 0.68 0.74 0.74 0.74 0.58 0.64 0.57 0.56 0.54 0.53 0.54 0.54 0.56 0.62 0.70 0.73 0.77 0.78 0.79 0.86 0.92 0.95 1.01 1.15 1.18 1.24 1.31 1.27 1.22 1.25 1.35 1.44 1.44 1.44 1.42 1.45 1.49 1.55 1.58
0.87 0.59 0.78 0.95 0.82 0.70 0.68 0.68 0.68 0.78 0.75 0.57 0.55 0.53 0.58 0.56 0.54 0.58 0.60 0.63 0.67 0.72 0.76 0.81 0.85 0.89 0.92 0.96 1.09 1.14 1.19 1.26 1.26 1.25 1.26 1.29 1.39 1.51 1.56 1.54 1.54 1.61 1.68 1.72
1.07 0.83 1.10 0.95 0.59 0.50 0.53 0.59 0.62 0.67 0.62 0.58 0.61 0.59 0.53 0.51 0.51 0.53 0.55 0.58 0.61 0.65 0.70 0.73 0.76 0.82 0.88 0.91 0.97 1.03 1.08 1.19 1.21 1.23 1.33 1.40 1.43 1.47 1.56 1.60 1.65 1.75 1.83 1.84
1.15 0.94 0.73 0.51 0.41 0.51 0.55 0.60 0.53 0.51 0.47 0.43 0.45 0.48 0.46 0.41 0.42 0.49 0.54 0.60 0.63 0.65 0.70 0.69 0.69 0.75 0.84 0.90 0.95 0.99 1.04 1.15 1.22 1.23 1.30 1.39 1.53 1.54 1.56 1.61 1.66 1.68 1.69 1.65
1.18 1.04 0.69 0.54 0.33 0.33 0.47 0.66 0.43 0.42 0.44 0.41 0.41 0.50 0.51 0.45 0.42 0.40 0.42 0.51 0.59 0.63 0.66 0.67 0.69 0.75 0.84 0.91 1.00 1.11 1.17 1.24 1.32 1.37 1.41 1.40 1.45 1.52 1.51 1.45 1.40 1.30 1.23 1.18
1.06 1.04 0.65 0.51 0.31 0.26 0.63 0.81 0.44 0.44 0.47 0.45 0.52 0.56 0.45 0.37 0.38 0.41 0.42 0.46 0.55 0.62 0.69 0.72 0.78 0.84 0.95 1.03 1.15 1.25 1.31 1.32 1.38 1.39 1.41 1.39 1.30 1.22 1.18 1.12 1.05 1.02 0.96 0.89
0.83 1.06 0.78 0.41 0.35 0.67 0.85 0.53 0.43 0.41 0.42 0.44 0.42 0.35 0.30 0.28 0.30 0.34 0.40 0.46 0.56 0.65 0.70 0.75 0.83 0.90 0.96 1.06 1.13 1.14 1.21 1.21 1.21 1.12 1.01 0.98 1.00 0.97 0.98 0.98 0.93 0.90 0.91 0.90
0.86 0.92 0.74 0.53 0.61 0.65 0.56 0.49 0.41 0.43 0.41 0.41 0.37 0.33 0.30 0.28 0.29 0.31 0.36 0.42 0.48 0.56 0.59 0.61 0.68 0.78 0.87 0.90 0.88 0.88 0.89 0.91 0.93 0.88 0.80 0.78 0.83 0.88 0.91 0.95 0.95 0.91 0.90 0.91
0.63 0.56 0.46 0.42 0.37 0.35 0.38 0.45 0.41 0.42 0.43 0.42 0.43 0.39 0.37 0.32 0.33 0.34 0.36 0.41 0.46 0.48 0.50 0.53 0.57 0.66 0.76 0.77 0.75 0.76 0.79 0.80 0.83 0.86 0.82 0.80 0.80 0.84 0.91 0.95 0.97 0.96 0.95 0.93
0.52 0.43 0.38 0.34 0.32 0.34 0.33 0.31 0.31 0.31 0.34 0.40 0.43 0.43 0.43 0.41 0.41 0.42 0.43 0.46 0.49 0.53 0.55 0.57 0.57 0.60 0.65 0.70 0.74 0.78 0.77 0.77 0.80 0.84 0.87 0.84 0.85 0.91 0.96 0.98 1.07 1.17 1.11 1.04
0.65 0.49 0.57 0.47 0.38 0.36 0.36 0.35 0.35 0.34 0.32 0.32 0.39 0.46 0.46 0.46 0.45 0.47 0.48 0.47 0.50 0.54 0.59 0.62 0.61 0.64 0.67 0.71 0.77 0.84 0.85 0.84 0.86 0.91 0.91 0.92 0.93 0.96 1.05 1.06 1.12 1.18 1.16 1.12
0.60 0.45 0.43 0.38 0.34 0.35 0.39 0.39 0.39 0.39 0.39 0.37 0.36 0.39 0.43 0.47 0.47 0.46 0.45 0.47 0.53 0.59 0.64 0.66 0.66 0.69 0.74 0.77 0.80 0.87 0.92 0.96 0.97 0.95 0.92 0.94 0.98 0.99 1.02 1.05 1.09 1.15 1.18 1.15
0.40 0.38 0.38 0.36 0.40 0.36 0.35 0.35 0.34 0.34 0.34 0.35 0.36 0.34 0.37 0.43 0.44 0.46 0.52 0.56 0.58 0.60 0.62 0.63 0.63 0.69 0.78 0.81 0.82 0.85 0.87 0.96 1.02 0.99 0.97 0.98 1.03 1.07 1.05 1.04 1.05 1.07 1.11 1.16
0.35 0.40 0.48 0.42 0.35 0.33 0.31 0.30 0.30 0.32 0.31 0.32 0.34 0.35 0.37 0.42 0.46 0.53 0.56 0.55 0.55 0.55 0.58 0.59 0.60 0.67 0.73 0.78 0.81 0.82 0.84 0.92 0.99 1.02 1.01 1.02 1.04 1.06 1.07 1.06 1.05 1.05 1.03 1.11
0.32 0.28 0.28 0.28 0.29 0.28 0.27 0.29 0.31 0.32 0.31 0.31 0.33 0.37 0.40 0.44 0.47 0.50 0.52 0.51 0.55 0.61 0.65 0.64 0.66 0.69 0.69 0.71 0.74 0.76 0.81 0.94 1.01 1.02 1.00 0.99 0.99 1.01 1.03 1.05 1.05 1.02 1.02 1.09
0.34 0.32 0.29 0.29 0.29 0.30 0.31 0.34 0.37 0.36 0.34 0.35 0.38 0.39 0.39 0.39 0.39 0.43 0.48 0.52 0.57 0.64 0.67 0.67 0.70 0.67 0.66 0.68 0.71 0.73 0.79 0.88 0.96 0.95 0.95 0.97 0.98 1.01 1.02 1.02 1.02 1.00 1.06 1.16
0.39 0.40 0.40 0.40 0.39 0.37 0.35 0.34 0.35 0.35 0.35 0.36 0.36 0.37 0.39 0.41 0.44 0.47 0.50 0.49 0.47 0.48 0.56 0.64 0.69 0.68 0.66 0.69 0.71 0.74 0.79 0.85 0.88 0.90 0.91 0.93 0.96 0.97 0.97 0.98 0.96 0.98 1.03 1.12
0.34 0.35 0.35 0.35 0.37 0.38 0.39 0.40 0.41 0.40 0.38 0.38 0.38 0.40 0.42 0.44 0.47 0.48 0.45 0.42 0.42 0.48 0.58 0.62 0.66 0.62 0.62 0.69 0.76 0.76 0.79 0.82 0.83 0.84 0.85 0.89 0.89 0.86 0.88 0.91 0.92 0.93 0.96 0.99
0.32 0.33 0.33 0.34 0.35 0.38 0.40 0.39 0.39 0.38 0.38 0.39 0.39 0.37 0.38 0.41 0.45 0.45 0.41 0.43 0.54 0.64 0.65 0.62 0.57 0.57 0.60 0.66 0.75 0.76 0.75 0.77 0.80 0.82 0.81 0.82 0.82 0.82 0.82 0.83 0.85 0.86 0.89 0.93
0.30 0.31 0.32 0.33 0.34 0.36 0.39 0.39 0.38 0.40 0.40 0.38 0.39 0.41 0.42 0.42 0.41 0.40 0.38 0.42 0.50 0.53 0.52 0.52 0.52 0.57 0.62 0.69 0.72 0.71 0.71 0.73 0.76 0.80 0.82 0.83 0.83 0.81 0.80 0.81 0.82 0.83 0.86 0.90
0.32 0.32 0.32 0.30 0.30 0.31 0.33 0.33 0.35 0.36 0.36 0.36 0.36 0.37 0.37 0.37 0.35 0.34 0.36 0.45 0.50 0.50 0.47 0.48 0.55 0.65 0.71 0.72 0.67 0.64 0.66 0.70 0.74 0.76 0.80 0.82 0.83 0.83 0.80 0.79 0.80 0.79 0.79 0.82
0.34 0.34 0.34 0.35 0.34 0.33 0.31 0.31 0.34 0.35 0.35 0.35 0.36 0.36 0.36 0.36 0.34 0.35 0.39 0.40 0.42 0.43 0.43 0.50 0.58 0.64 0.67 0.64 0.59 0.58 0.60 0.64 0.68 0.72 0.76 0.79 0.81 0.82 0.81 0.78 0.76 0.75 0.75 0.75
0.31 0.32 0.33 0.30 0.27 0.24 0.26 0.28 0.31 0.33 0.32 0.32 0.33 0.33 0.33 0.32 0.29 0.30 0.36 0.38 0.38 0.39 0.40 0.45 0.49 0.51 0.51 0.49 0.47 0.49 0.52 0.55 0.60 0.63 0.65 0.67 0.69 0.71 0.72 0.72 0.71 0.68 0.68 0.68
0.26 0.26 0.26 0.25 0.25 0.24 0.24 0.23 0.23 0.25 0.25 0.24 0.24 0.24 0.25 0.28 0.32 0.30 0.29 0.29 0.30 0.33 0.34 0.35 0.36 0.37 0.37 0.37 0.40 0.44 0.47 0.51 0.56 0.60 0.59 0.58 0.59 0.61 0.63 0.64 0.65 0.64 0.63 0.63
0.20 0.20 0.20 0.21 0.22 0.22 0.22 0.21 0.22 0.21 0.21 0.20 0.19 0.20 0.20 0.20 0.22 0.23 0.24 0.24 0.25 0.28 0.28 0.27 0.27 0.29 0.31 0.33 0.36 0.39 0.41 0.43 0.45 0.48 0.48 0.50 0.50 0.51 0.53 0.54 0.55 0.58 0.59 0.58
0.16 0.16 0.15 0.15 0.14 0.16 0.17 0.19 0.21 0.21 0.21 0.24 0.26 0.22 0.21 0.19 0.19 0.20 0.21 0.23 0.24 0.25 0.25 0.26 0.27 0.30 0.31 0.32 0.34 0.35 0.37 0.39 0.40 0.43 0.45 0.47 0.48 0.50 0.49 0.50 0.51 0.52 0.53 0.53